Ithaca, NY

2:38 AM EDT on October 17, 2017 (GMT -0400)
Tompkins County

Weather History for KITH - December, 2011

Change the Weather History Date:

Saturday, December 24, 2011

  Actual Average Record
Temperature  
Mean Temperature 20 °F -  
Max Temperature 24 °F 33 °F 64 °F (2015)
Min Temperature 17 °F 17 °F -15 °F (1989)
Degree Days  
Heating Degree Days 44    
Moisture  
Dew Point 15 °F    
Average Humidity 77    
Maximum Humidity 92    
Minimum Humidity 59    
Precipitation  
Precipitation 0.00 in - - ()
Sea Level Pressure  
Sea Level Pressure 30.40 in    
Wind  
Wind Speed 5 mph (North)    
Max Wind Speed 8 mph    
Max Gust Speed -    
Visibility 9 miles    
Events Snow    
Averages and records for this station are not official NWS values.
T = Trace of Precipitation, MM = Missing Value Source: NWS Daily Summary

Daily Weather History Graph

Daily Weather History Graph

Search for Another Location

Airport or City:

Trip Planner

Search our weather history database for the weather conditions in past years. The results will help you decide how hot, cold, wet, or windy it might be!

Date:

Astronomy

Dec. 24, 2011 Rise Set
Actual Time 7:33 AM EST 4:37 PM EST
Civil Twilight 7:01 AM EST 5:09 PM EST
Nautical Twilight 6:25 AM EST 5:44 PM EST
Astronomical Twilight 5:51 AM EST 6:19 PM EST
Moon 7:19 AM EST (12/24) 4:48 PM EST (12/24)
Length of Visible Light 10h 08m
Length of Day
9h 03m
Waning Crescent, 0% of the Moon is Illuminated
Dec 24
Waning Crescent
Dec 24
New
Jan 1
First Quarter
Jan 9
Full
Jan 16
Last Quarter

Hourly Weather History & Observations

Time (EST) Temp. Windchill Dew Point Humidity Pressure Visibility Wind Dir Wind Speed Gust Speed Precip Events Conditions
12:56 AM 20.1 °F 12.3 °F 13.1 °F 74% 30.30 in 10.0 mi NNW 5.8 mph - 0.00 in   Overcast
1:56 AM 21.0 °F 13.4 °F 14.0 °F 74% 30.30 in 10.0 mi NNW 5.8 mph - 0.00 in   Mostly Cloudy
2:04 AM 19.4 °F 11.5 °F 14.0 °F 80% 30.25 in 10.0 mi NNW 5.8 mph - N/A   Partly Cloudy
2:56 AM 20.1 °F 13.6 °F 15.1 °F 81% 30.33 in 10.0 mi NNW 4.6 mph - N/A   Mostly Cloudy
3:08 AM 19.4 °F 12.8 °F 15.8 °F 86% 30.28 in 10.0 mi NW 4.6 mph - N/A   Scattered Clouds
3:30 AM 19.4 °F 14.3 °F 15.8 °F 86% 30.27 in 10.0 mi NW 3.5 mph - N/A   Mostly Cloudy
5:56 AM 20.1 °F 11.3 °F 16.2 °F 85% 30.40 in 4.0 mi North 6.9 mph - 0.00 in Snow Light Snow
6:28 AM 19.4 °F 11.5 °F 15.8 °F 86% 30.36 in 7.0 mi NNW 5.8 mph - 0.00 in Snow Light Snow
7:56 AM 17.1 °F - 15.1 °F 92% 30.44 in 10.0 mi Calm Calm - 0.00 in   Mostly Cloudy
8:56 AM 20.1 °F 15.2 °F 16.2 °F 85% 30.47 in 10.0 mi NW 3.5 mph - 0.00 in Snow Light Snow
9:56 AM 21.0 °F 16.2 °F 16.2 °F 81% 30.49 in 6.0 mi North 3.5 mph - 0.00 in Snow Light Snow
10:56 AM 22.1 °F 15.9 °F 16.2 °F 78% 30.51 in 7.0 mi WNW 4.6 mph - 0.00 in Snow Light Snow
11:56 AM 23.0 °F 14.7 °F 15.1 °F 72% 30.48 in 10.0 mi NNW 6.9 mph - 0.00 in Snow Light Snow
12:56 PM 23.0 °F 18.4 °F 15.1 °F 72% 30.48 in 10.0 mi North 3.5 mph - 0.00 in   Overcast
1:56 PM 24.1 °F 15.2 °F 14.0 °F 65% 30.47 in 10.0 mi North 8.1 mph - N/A   Mostly Cloudy
2:56 PM 23.0 °F - 13.1 °F 66% 30.47 in 10.0 mi Calm Calm - 0.00 in   Mostly Cloudy
3:36 PM 24.8 °F - 12.2 °F 59% 30.40 in 10.0 mi Calm Calm - N/A   Scattered Clouds
3:56 PM 24.1 °F - 12.0 °F 60% 30.45 in 10.0 mi Calm Calm - N/A   Partly Cloudy
4:56 PM 21.0 °F - 14.0 °F 74% 30.43 in 10.0 mi Calm Calm - N/A   Clear
5:56 PM 18.1 °F 11.3 °F 14.0 °F 84% 30.43 in 10.0 mi East 4.6 mph - N/A   Clear
6:56 PM 17.1 °F 10.0 °F 14.0 °F 88% 30.45 in 10.0 mi East 4.6 mph - N/A   Clear
7:56 PM 18.1 °F 11.3 °F 14.0 °F 84% 30.44 in 10.0 mi East 4.6 mph - N/A   Clear
8:56 PM 18.1 °F 12.9 °F 14.0 °F 84% 30.42 in 10.0 mi ESE 3.5 mph - N/A   Clear
9:56 PM 21.0 °F 12.4 °F 14.0 °F 74% 30.40 in 10.0 mi SE 6.9 mph - N/A   Overcast
10:56 PM 23.0 °F 14.7 °F 15.1 °F 72% 30.36 in 10.0 mi SE 6.9 mph - N/A   Overcast
11:56 PM 24.1 °F 16.0 °F 16.2 °F 72% 30.35 in 10.0 mi South 6.9 mph - N/A   Overcast